Wind_Speed
32 40 43 34 19 29 27 30 28 29 24 26 21 25 21 15 29 29 28 30 25 2 5 4 4 14 17 12 8 8 8 5 2 6 7 6 9 11 16 21 24 20 22 23 22 22 21 24 25
34 39 45 42 29 17 21 25 25 24 27 25 27 27 26 29 31 28 14 6 2 3 4 5 11 15 12 6 8 8 11 10 9 10 5 5 6 8 14 18 20 22 18 22 22 21 22 24 27
33 35 38 42 41 30 20 18 29 30 27 24 25 22 24 24 24 24 10 1 2 5 4 8 10 10 6 7 7 11 13 15 11 9 4 6 8 9 13 13 16 17 19 18 20 22 23 21 23
39 38 37 36 36 37 36 29 21 16 18 20 23 21 20 27 23 14 2 2 2 4 5 8 16 3 7 7 11 12 13 14 12 8 6 8 9 11 11 11 15 13 16 17 20 19 20 20 20
43 41 39 34 29 29 32 35 37 29 21 13 13 12 12 12 13 12 10 10 10 8 10 9 8 10 8 7 8 11 11 12 12 10 9 9 10 11 12 12 13 12 7 15 18 19 17 18 18
39 40 41 40 37 30 27 29 30 29 30 29 27 24 22 18 16 13 12 12 10 9 9 9 10 9 6 6 8 11 11 11 10 10 9 9 10 11 12 12 13 10 4 4 13 17 17 15 15
36 38 38 43 39 34 34 30 27 26 25 24 24 22 20 18 16 16 14 13 13 11 9 8 7 6 5 6 7 9 10 11 10 10 10 9 9 9 10 11 10 9 5 7 12 13 14 12 10
35 35 38 41 42 36 33 36 34 27 25 23 18 16 15 13 12 11 11 10 10 11 10 11 10 9 9 8 8 8 9 9 10 10 11 11 10 9 8 7 8 8 6 9 10 12 14 8 9
28 33 34 39 40 39 35 36 35 32 28 27 23 19 15 12 11 10 9 8 9 8 8 7 7 7 7 7 7 9 9 10 11 12 12 14 15 15 14 12 9 8 8 9 8 8 9 4 8
27 30 31 33 37 40 37 35 34 33 31 28 26 23 19 16 12 8 7 7 8 8 8 8 8 8 8 9 11 12 14 15 16 16 16 17 19 19 19 18 15 14 12 10 10 7 5 5 13
23 27 29 32 36 35 36 34 32 33 33 30 28 25 24 22 19 17 14 11 8 7 9 10 10 11 13 14 16 17 19 20 21 21 21 22 22 20 18 19 18 16 16 15 13 10 8 6 11
23 25 29 29 31 34 37 34 30 29 32 33 30 29 29 30 30 29 26 21 17 13 11 9 10 13 14 15 16 18 19 20 21 20 20 20 20 20 19 19 18 16 19 19 18 17 14 10 10
20 22 26 25 23 24 26 32 32 31 32 32 33 33 32 32 32 32 31 29 25 20 18 15 13 14 16 18 19 20 20 19 19 19 18 18 18 18 19 18 18 18 17 20 21 22 22 21 17
16 16 24 25 22 19 25 28 30 30 32 33 32 31 31 30 31 32 31 30 27 23 21 19 19 18 17 17 17 19 20 21 22 21 20 16 15 14 15 14 16 20 22 20 21 22 25 24 24
12 14 20 22 23 20 23 25 27 29 34 34 31 31 32 32 32 31 30 28 27 24 21 18 19 20 21 23 24 24 25 24 23 21 18 13 11 12 14 17 18 19 20 23 24 25 25 25 29
11 12 15 19 20 19 21 20 25 29 33 33 33 34 34 32 30 30 30 30 29 28 25 23 21 21 23 26 26 26 24 25 23 17 10 12 14 18 20 25 24 23 22 22 23 23 25 26 27
5 8 13 16 17 18 20 19 22 25 32 37 35 36 36 35 34 35 34 33 33 32 30 27 26 25 26 27 27 26 24 22 21 19 16 16 18 24 22 27 23 22 20 20 20 21 22 24 27
6 5 8 13 14 17 19 20 22 26 31 34 35 35 38 39 39 39 40 36 37 36 34 33 32 30 30 30 28 26 25 21 18 16 17 20 22 23 24 20 18 16 15 14 15 19 21 24 27
8 7 4 9 10 14 17 21 23 26 32 30 38 39 40 41 41 43 44 40 39 40 39 37 36 33 31 30 27 24 21 19 20 22 22 21 17 17 24 16 10 9 3 4 5 8 13 19 23
10 3 3 3 9 14 21 22 23 24 30 33 36 39 41 43 44 45 47 45 41 46 44 39 38 35 33 33 32 28 21 16 17 16 21 18 16 16 15 17 13 11 6 6 7 11 9 11 15
11 9 8 2 9 16 22 27 23 24 29 33 34 37 39 43 43 45 48 50 44 46 47 42 42 40 35 35 36 32 27 24 16 15 15 17 18 21 11 17 20 14 12 13 14 12 12 13 14
13 9 11 5 11 17 25 23 24 27 30 32 34 35 38 43 45 49 50 49 47 44 46 45 43 44 41 38 39 36 34 28 19 17 14 15 21 20 15 15 17 21 18 14 16 14 14 12 13
16 11 19 17 17 21 20 23 27 28 29 32 35 34 39 43 45 51 52 52 47 49 45 47 44 43 41 40 44 43 39 35 29 23 18 18 23 24 25 26 31 34 26 24 24 17 17 18 18
14 13 24 19 24 21 23 26 30 28 31 33 33 39 44 45 48 53 56 58 54 48 52 50 48 44 40 39 40 41 44 44 42 36 29 33 32 25 22 26 27 27 33 37 31 33 29 25 23
19 19 24 24 29 23 27 29 32 29 34 35 35 39 45 48 49 54 57 61 61 58 55 49 47 45 47 45 45 46 44 42 43 41 42 41 37 29 29 34 33 35 40 38 39 35 39 42 38
22 18 25 29 28 29 30 34 34 34 36 36 37 42 48 51 52 54 60 60 61 54 52 50 48 48 50 48 47 46 49 46 44 44 44 44 44 38 37 39 38 42 48 46 40 42 41 54 52
19 21 27 27 26 28 32 34 33 36 36 38 41 46 50 50 51 55 61 66 65 60 56 49 50 55 55 58 53 52 52 48 49 48 49 50 47 47 48 49 44 41 42 48 49 49 55 54 56
24 22 24 23 24 27 32 33 35 36 38 41 46 49 51 51 54 60 63 67 67 61 58 52 51 54 59 60 58 60 57 56 56 56 58 55 50 48 53 55 55 54 48 44 43 49 50 55 65
30 29 23 25 28 32 33 35 38 39 41 44 46 50 50 54 59 62 67 70 70 65 61 57 54 59 64 61 62 64 62 61 59 59 60 57 54 51 54 53 53 55 58 51 47 50 54 54 63
32 30 29 32 33 39 40 40 40 41 43 46 49 52 56 61 62 64 68 73 72 70 67 60 58 61 60 62 66 65 64 65 65 68 62 55 54 54 55 57 58 59 60 65 58 56 61 62 59
Wind_Direction
54 54 57 67 131 159 181 197 206 206 208 200 207 226 236 252 234 240 262 281 270 326 18 344 13 344 321 341 8 344 351 0 78 139 128 74 75 59 47 44 41 43 46 46 50 48 46 45 50
60 59 63 67 82 130 193 197 205 208 201 219 224 225 247 249 258 266 274 265 111 42 6 7 342 331 315 26 14 28 46 60 94 120 105 46 49 41 38 43 37 36 43 44 46 49 45 43 42
60 59 64 69 71 81 102 165 206 208 221 236 226 247 242 248 261 265 268 350 287 321 308 314 296 316 21 50 44 64 61 65 80 90 76 38 16 358 11 16 34 34 37 40 40 42 44 50 50
62 60 55 58 69 72 78 82 87 130 188 205 220 236 242 252 252 214 184 111 17 338 278 288 295 69 72 54 60 58 59 66 68 68 57 38 11 351 348 358 12 30 39 37 42 36 43 47 50
62 63 65 61 59 62 72 77 84 93 106 128 164 169 169 158 143 118 99 78 72 75 81 86 129 99 73 62 46 46 57 57 60 57 47 39 25 14 359 345 357 23 56 45 37 36 35 40 42
63 62 64 65 62 56 63 72 76 80 87 89 88 88 81 76 74 74 74 75 76 75 84 85 86 87 73 49 24 20 37 53 53 50 44 28 27 16 1 352 350 12 18 3 24 20 24 28 42
62 63 65 64 64 60 58 65 66 68 68 73 79 78 77 74 69 64 63 62 63 60 54 62 65 65 58 39 25 26 29 30 30 29 25 13 8 19 15 9 354 349 343 311 335 348 359 0 27
65 62 62 62 62 66 62 63 67 60 58 65 69 73 71 64 55 52 49 41 42 42 43 49 51 48 48 43 36 18 10 0 354 349 347 344 338 340 348 349 1 351 324 309 319 327 335 348 5
68 69 64 63 65 62 60 60 64 67 64 65 65 62 58 51 37 28 17 17 19 20 20 23 22 20 9 355 346 336 326 321 316 316 319 321 323 325 323 317 317 326 329 323 321 332 336 327 339
69 70 66 64 64 65 65 60 58 59 61 57 57 59 54 54 48 34 9 355 348 336 329 327 324 320 313 308 306 302 301 301 302 304 303 301 305 300 299 292 294 298 297 301 315 327 337 293 294
65 64 65 64 58 61 64 63 58 54 55 57 52 50 44 41 35 24 14 0 340 322 307 300 299 296 294 292 291 290 286 285 288 292 296 298 302 305 304 289 287 277 280 281 276 286 292 278 279
66 64 60 71 69 59 59 56 56 51 49 49 48 41 35 33 29 24 20 11 353 332 309 303 293 287 288 290 290 287 286 287 290 292 296 299 302 303 303 299 296 290 271 268 268 269 276 271 260
63 61 56 63 72 58 48 52 49 48 43 39 38 36 32 29 28 26 21 14 8 359 347 323 304 295 295 296 297 298 298 298 296 299 301 302 303 304 301 298 298 293 282 272 268 263 259 265 268
71 76 69 66 72 65 53 53 47 41 39 34 32 33 31 32 31 30 24 17 9 359 349 341 332 327 320 315 307 302 301 299 300 300 298 299 304 313 325 315 308 288 277 268 264 260 254 258 258
67 70 69 68 64 65 49 42 36 38 32 34 29 29 32 32 32 28 22 17 9 4 357 346 337 330 325 322 314 306 300 296 291 289 291 290 298 308 319 320 300 294 278 264 257 256 252 251 250
81 68 65 66 59 49 40 34 28 31 30 33 28 26 28 28 27 22 16 14 11 7 0 351 341 333 327 326 318 310 304 299 288 287 274 299 301 308 309 317 300 292 287 265 253 251 253 252 246
81 57 65 67 54 40 33 24 18 17 21 25 26 20 18 22 19 16 11 11 10 7 3 358 352 348 342 338 329 321 318 312 297 277 256 282 290 313 307 317 293 301 293 284 266 253 249 245 245
259 57 64 56 52 34 27 19 14 17 15 18 17 17 14 13 14 11 9 10 11 7 5 0 357 352 347 342 334 326 314 307 303 279 293 297 302 306 308 311 289 296 299 295 290 269 262 260 253
243 313 28 23 44 25 16 10 11 15 13 8 6 7 7 8 9 6 8 8 8 8 5 359 355 349 345 343 337 334 319 305 295 280 277 285 284 310 317 311 307 293 325 330 316 293 266 253 252
247 299 357 326 12 11 359 356 0 2 1 360 359 1 1 2 6 3 4 3 360 2 3 359 354 350 349 350 346 339 335 331 316 294 283 273 292 300 314 323 325 325 316 314 299 293 279 274 279
231 272 270 277 340 329 339 343 354 357 352 352 353 357 357 358 0 1 359 1 356 356 2 357 354 351 351 350 351 349 348 343 320 287 282 285 289 296 298 303 292 303 301 301 296 304 314 323 325
263 288 251 309 327 334 332 344 350 348 348 347 350 352 356 356 355 359 357 358 356 348 355 356 355 352 350 352 352 351 348 344 327 317 293 281 274 284 276 283 299 275 277 276 277 273 277 275 282
237 258 259 272 289 312 329 332 332 338 340 341 343 347 351 348 351 354 356 353 350 349 346 348 352 352 351 347 342 341 342 336 331 313 296 306 302 299 278 284 285 279 281 280 278 269 273 284 285
225 256 260 264 277 306 316 322 321 327 331 335 340 341 340 342 345 347 351 350 348 346 347 344 345 345 347 344 341 334 328 330 324 317 299 298 294 288 270 275 272 278 269 271 275 279 283 281 287
230 242 250 262 284 299 305 312 317 321 321 325 328 334 336 335 342 344 346 348 345 345 342 339 337 341 343 343 339 334 330 323 319 312 307 300 295 278 270 273 275 270 278 265 268 273 283 280 280
231 248 260 276 284 297 306 310 315 316 315 318 324 329 330 333 334 340 341 345 343 340 338 331 332 332 336 334 335 332 330 322 316 311 304 299 290 276 267 268 265 280 294 277 266 268 268 275 275
233 253 263 274 294 298 302 307 312 312 311 317 322 326 328 330 331 334 337 339 337 338 334 324 318 320 325 328 329 330 327 322 315 311 308 302 291 270 275 269 263 266 271 284 271 268 262 265 273
243 258 272 281 290 294 301 306 307 307 310 314 320 323 327 328 327 326 328 334 335 335 333 327 322 322 322 324 326 326 323 321 318 317 314 308 300 282 275 275 271 264 264 266 271 264 262 258 262
245 253 273 283 289 294 299 303 304 305 307 307 315 319 320 322 321 322 329 332 331 331 330 326 320 319 320 323 324 322 318 318 315 314 311 305 300 291 283 277 272 270 259 256 258 254 250 249 259
248 266 272 284 287 291 294 298 299 302 303 301 306 313 314 315 317 318 323 325 326 327 326 322 320 318 319 321 319 318 317 315 314 314 310 303 297 290 284 281 277 270 263 251 254 246 247 252 257
Height
10989 10981 10972 10968 10970 10974 10978 10983 10986 10989 10991 10996 10998 10999 11002 11004 11002 11003 11002 11001 10999 10999 11000 10998 10998 10997 10995 10992 10990 10990 10987 10984 10983 10983 10984 10985 10985 10984 10982 10979 10975 10973 10971 10970 10969 10968 10966 10964 10962
10992 10987 10981 10978 10977 10980 10982 10984 10988 10991 10993 10996 10998 11000 11002 11003 11003 11003 10998 10997 10998 10998 10999 10997 10998 10997 10995 10992 10991 10990 10988 10985 10984 10984 10985 10984 10983 10984 10983 10980 10978 10976 10974 10972 10970 10969 10968 10965 10961
10995 10993 10989 10986 10985 10984 10982 10983 10985 10989 10992 10995 10997 10999 11000 11000 11001 11000 10998 10997 10996 10995 10994 10996 10997 10996 10994 10993 10993 10991 10989 10987 10987 10987 10987 10985 10983 10982 10983 10982 10981 10978 10976 10975 10973 10971 10970 10969 10968
11001 10996 10992 10991 10992 10993 10991 10987 10985 10988 10991 10993 10996 10997 10998 10998 10998 11000 10998 10995 10994 10994 10995 10994 10994 10994 10994 10994 10993 10992 10991 10989 10988 10988 10987 10987 10985 10984 10982 10981 10981 10982 10980 10978 10976 10974 10972 10972 10971
11006 11003 11000 11001 11000 10999 10998 10996 10994 10994 10995 10996 10997 10999 10999 10999 10999 10998 10997 10995 10995 10996 10994 10992 10993 10993 10993 10993 10993 10993 10992 10991 10991 10990 10988 10987 10986 10985 10983 10981 10980 10980 10981 10981 10979 10977 10975 10973 10972
11011 11009 11007 11003 11002 11005 11004 11001 11000 11001 11001 11001 11001 11002 11000 11000 10999 10999 10997 10997 10997 10995 10994 10994 10993 10992 10992 10992 10992 10992 10992 10992 10992 10991 10990 10988 10987 10985 10984 10982 10980 10979 10978 10979 10979 10979 10978 10976 10975
11017 11015 11013 11009 11004 11006 11009 11005 11003 11003 11003 11002 11002 11002 11002 11002 11001 11000 10999 10998 10997 10995 10994 10992 10992 10992 10991 10991 10991 10990 10989 10989 10989 10989 10988 10988 10986 10985 10984 10982 10979 10978 10978 10978 10977 10977 10978 10977 10977
11022 11020 11017 11014 11012 11010 11010 11011 11007 11006 11007 11007 11006 11005 11004 11003 11002 11000 10999 10998 10996 10995 10993 10992 10992 10992 10992 10991 10991 10990 10988 10987 10986 10986 10985 10985 10984 10983 10983 10982 10980 10977 10977 10976 10976 10975 10975 10975 10976
11027 11023 11020 11018 11017 11016 11012 11013 11013 11013 11012 11010 11008 11007 11006 11004 11003 11001 11000 10998 10996 10996 10994 10993 10992 10992 10991 10991 10990 10988 10987 10986 10985 10984 10983 10983 10982 10981 10981 10980 10979 10977 10976 10975 10975 10975 10974 10973 10973
11029 11026 11024 11022 11021 11021 11020 11018 11018 11016 11014 11012 11010 11008 11007 11005 11003 11002 11000 10998 10997 10996 10994 10993 10992 10991 10990 10989 10988 10986 10985 10985 10984 10982 10980 10979 10978 10977 10977 10976 10975 10975 10974 10973 10973 10973 10974 10973 10972
11033 11031 11029 11027 11025 11024 11023 11022 11022 11020 11018 11016 11014 11010 11008 11006 11004 11001 10999 10998 10996 10994 10992 10991 10990 10988 10988 10986 10985 10984 10983 10982 10980 10979 10977 10975 10974 10972 10970 10969 10969 10970 10970 10970 10969 10970 10971 10971 10970
11036 11034 11033 11031 11030 11029 11028 11027 11026 11025 11021 11018 11015 11012 11011 11007 11004 11001 10999 10997 10995 10992 10990 10989 10987 10985 10984 10983 10982 10980 10979 10978 10975 10973 10972 10970 10968 10967 10965 10965 10963 10964 10964 10964 10964 10965 10966 10966 10967
11038 11037 11034 11033 11033 11032 11032 11029 11030 11029 11025 11020 11016 11014 11011 11007 11004 11001 10998 10995 10993 10990 10988 10986 10984 10983 10982 10980 10978 10976 10974 10972 10969 10967 10965 10964 10963 10961 10960 10958 10958 10958 10958 10958 10957 10959 10960 10960 10961
11041 11041 11038 11035 11035 11035 11034 11032 11032 11030 11026 11022 11018 11015 11012 11009 11006 11002 10998 10995 10992 10989 10987 10984 10982 10981 10979 10976 10974 10971 10968 10966 10964 10962 10961 10959 10957 10956 10955 10953 10951 10950 10950 10951 10950 10951 10952 10953 10955
11042 11041 11039 11036 11035 11035 11034 11033 11034 11032 11028 11024 11022 11019 11014 11010 11006 11003 11000 10996 10992 10989 10986 10983 10980 10977 10974 10972 10969 10967 10964 10961 10959 10957 10955 10954 10953 10952 10949 10948 10945 10943 10941 10941 10942 10942 10944 10946 10948
11042 11042 11039 11038 11037 11036 11034 11034 11033 11032 11030 11027 11025 11021 11017 11012 11008 11005 11002 10997 10993 10989 10985 10981 10978 10974 10971 10968 10965 10961 10959 10956 10953 10952 10951 10950 10949 10948 10945 10942 10938 10935 10933 10933 10933 10935 10937 10937 10939
11043 11042 11040 11039 11038 11038 11037 11035 11032 11032 11031 11027 11024 11021 11018 11014 11010 11006 11001 10996 10992 10987 10984 10979 10974 10970 10966 10961 10958 10955 10952 10949 10946 10945 10944 10943 10942 10940 10937 10934 10931 10929 10928 10928 10928 10930 10929 10931 10931
11043 11043 11041 11039 11038 11038 11037 11036 11034 11030 11028 11026 11024 11022 11017 11013 11009 11005 11002 10997 10992 10986 10981 10976 10970 10966 10961 10957 10952 10948 10945 10943 10943 10942 10941 10940 10938 10935 10932 10929 10924 10921 10920 10921 10923 10925 10927 10927 10926
11042 11042 11041 11039 11038 11037 11037 11035 11033 11030 11028 11024 11021 11017 11013 11011 11008 11003 10999 10995 10991 10984 10979 10973 10968 10963 10959 10955 10951 10947 10942 10939 10937 10935 10933 10935 10933 10931 10928 10924 10921 10916 10915 10913 10914 10915 10916 10917 10919
11040 11041 11040 11038 11037 11036 11035 11033 11031 11029 11027 11024 11020 11015 11010 11006 11004 10999 10996 10992 10988 10982 10977 10971 10966 10960 10956 10951 10946 10942 10938 10935 10933 10932 10929 10929 10929 10928 10926 10921 10918 10915 10912 10909 10907 10907 10907 10910 10912
11038 11039 11038 11036 11035 11034 11034 11031 11028 11027 11025 11022 11019 11015 11010 11005 11003 10999 10995 10991 10985 10979 10973 10968 10962 10956 10952 10947 10942 10936 10932 10929 10926 10925 10925 10925 10923 10921 10919 10916 10912 10909 10906 10904 10901 10902 10903 10902 10904
11036 11037 11036 11035 11033 11032 11031 11029 11026 11025 11022 11020 11017 11014 11010 11005 11001 10998 10993 10988 10983 10977 10970 10964 10959 10952 10946 10941 10937 10933 10929 10924 10921 10920 10918 10918 10917 10915 10913 10910 10908 10904 10900 10896 10894 10893 10894 10894 10895
11035 11035 11034 11033 11032 11030 11029 11026 11023 11023 11020 11018 11015 11012 11008 11004 11000 10996 10990 10986 10981 10974 10968 10961 10956 10949 10943 10937 10931 10926 10924 10921 10918 10915 10911 10910 10909 10905 10902 10900 10898 10897 10894 10891 10887 10885 10886 10887 10885
11031 11031 11030 11029 11029 11028 11026 11023 11022 11020 11018 11016 11012 11008 11003 10999 10994 10988 10984 10981 10976 10969 10962 10956 10951 10945 10940 10933 10929 10923 10917 10913 10909 10907 10905 10900 10896 10893 10891 10890 10888 10888 10886 10884 10882 10878 10877 10879 10878
11027 11026 11025 11025 11024 11023 11021 11020 11018 11017 11015 11013 11009 11005 11001 10996 10989 10983 10979 10972 10967 10961 10956 10951 10946 10939 10933 10929 10924 10918 10914 10908 10903 10899 10896 10891 10888 10884 10881 10877 10877 10879 10879 10875 10869 10868 10865 10869 10871
11022 11023 11021 11020 11018 11016 11015 11014 11014 11012 11010 11007 11004 11000 10994 10990 10985 10979 10973 10970 10964 10958 10953 10947 10941 10935 10930 10925 10920 10913 10906 10900 10895 10889 10886 10881 10876 10872 10867 10863 10862 10871 10874 10866 10857 10852 10849 10854 10855
11018 11018 11017 11015 11013 11010 11010 11010 11008 11007 11004 11001 10998 10994 10989 10985 10980 10974 10968 10963 10960 10954 10947 10940 10934 10929 10921 10915 10909 10905 10899 10893 10885 10879 10873 10865 10860 10856 10851 10849 10849 10851 10855 10857 10847 10842 10839 10840 10839
11013 11012 11011 11010 11010 11008 11007 11005 11003 11001 11000 10996 10990 10987 10982 10978 10973 10968 10964 10958 10951 10944 10937 10930 10924 10916 10911 10904 10897 10890 10883 10876 10869 10861 10853 10847 10841 10837 10833 10830 10829 10828 10830 10827 10825 10825 10823 10823 10820
11007 11007 11006 11005 11004 11003 11002 11002 10998 10996 10994 10991 10986 10982 10977 10973 10969 10962 10955 10950 10943 10935 10928 10921 10912 10904 10897 10890 10882 10875 10868 10862 10854 10849 10840 10831 10824 10820 10815 10811 10809 10806 10807 10808 10807 10809 10807 10808 10805
11000 11001 11000 10999 10997 10997 10997 10997 10995 10992 10988 10985 10982 10977 10971 10967 10962 10956 10951 10944 10936 10927 10919 10910 10902 10895 10887 10878 10869 10862 10853 10845 10837 10828 10822 10816 10808 10801 10796 10791 10788 10784 10784 10785 10789 10788 10789 10791 10787